Hourly Weather Acebo

Today, 7 March, Sunday

Time Temperature Precipitation Wind Pressure Humidity
00:00 +6°C° 0 mm 0 mps 697 mmHg 82%
01:00 +6°C° 0 mm 0 mps 697 mmHg 83%
02:00 +6°C° 0 mm 0 mps 697 mmHg 83%
03:00 +5°C° 0 mm 0 mps 696 mmHg 84%
04:00 +5°C° 0 mm 0 mps 696 mmHg 84%
05:00 +5°C° 0 mm 0 mps 696 mmHg 85%
06:00 +4°C° 0 mm 0 mps 696 mmHg 84%
07:00 +6°C° 0 mm 0 mps 696 mmHg 80%
08:00 +7°C° 0 mm 0 mps 697 mmHg 75%
09:00 +9°C° 0 mm 0 mps 697 mmHg 70%
10:00 +12°C° 0 mm 1 mps 697 mmHg 66%
11:00 +13°C° 0 mm 1 mps 697 mmHg 61%
12:00 +14°C° 0 mm 1 mps 697 mmHg 57%
13:00 +14°C° 0.4 mm 2 mps 696 mmHg 58%
14:00 +14°C° 0.4 mm 2 mps 696 mmHg 59%
15:00 +14°C° 0.4 mm 2 mps 695 mmHg 60%
16:00 +13°C° 0.5 mm 1 mps 695 mmHg 67%
17:00 +12°C° 0.5 mm 1 mps 694 mmHg 73%
18:00 +10°C° 0.5 mm 1 mps 694 mmHg 79%
19:00 +9°C° 0 mm 1 mps 694 mmHg 82%
20:00 +8°C° 0 mm 1 mps 694 mmHg 84%
21:00 +7°C° 0 mm 1 mps 694 mmHg 87%
22:00 +7°C° 0 mm 1 mps 694 mmHg 88%
23:00 +6°C° 0 mm 1 mps 694 mmHg 89%

Tomorrow, 8 March, Monday

Time Temperature Precipitation Wind Pressure Humidity
00:00 +6°C° 0 mm 1 mps 694 mmHg 91%
01:00 +6°C° 0 mm 1 mps 694 mmHg 91%
02:00 +5°C° 0 mm 1 mps 693 mmHg 92%
03:00 +5°C° 0 mm 1 mps 693 mmHg 92%
04:00 +5°C° 0 mm 1 mps 693 mmHg 93%
05:00 +4°C° 0 mm 1 mps 693 mmHg 93%
06:00 +4°C° 0 mm 1 mps 693 mmHg 93%
07:00 +5°C° 0 mm 1 mps 694 mmHg 91%
08:00 +7°C° 0 mm 1 mps 694 mmHg 88%
09:00 +8°C° 0 mm 1 mps 695 mmHg 86%
10:00 +9°C° 0.1 mm 1 mps 695 mmHg 80%
11:00 +11°C° 0.1 mm 1 mps 695 mmHg 75%
12:00 +12°C° 0.1 mm 1 mps 695 mmHg 70%
13:00 +13°C° 0.2 mm 2 mps 695 mmHg 67%
14:00 +12°C° 0.2 mm 3 mps 695 mmHg 64%
15:00 +12°C° 0.2 mm 3 mps 694 mmHg 60%
16:00 +11°C° 0.1 mm 3 mps 694 mmHg 64%
17:00 +10°C° 0.1 mm 3 mps 694 mmHg 67%
18:00 +8°C° 0.1 mm 3 mps 694 mmHg 70%
19:00 +7°C° 0 mm 3 mps 694 mmHg 71%
20:00 +5°C° 0 mm 3 mps 694 mmHg 72%
21:00 +3°C° 0 mm 3 mps 695 mmHg 73%
22:00 +3°C° 0 mm 3 mps 695 mmHg 74%
23:00 +2°C° 0 mm 3 mps 695 mmHg 75%

Day after tomorrow, 9 March, Tuesday

Time Temperature Precipitation Wind Pressure Humidity
00:00 +1°C° 0 mm 4 mps 696 mmHg 75%
01:00 +1°C° 0 mm 4 mps 696 mmHg 76%
02:00 +1°C° 0 mm 4 mps 696 mmHg 76%
03:00 0°C° 0 mm 4 mps 696 mmHg 77%
04:00 +1°C° 0 mm 3 mps 696 mmHg 78%
05:00 +1°C° 0 mm 3 mps 696 mmHg 79%
06:00 +1°C° 0 mm 3 mps 696 mmHg 80%
07:00 +2°C° 0 mm 3 mps 697 mmHg 76%
08:00 +3°C° 0 mm 3 mps 697 mmHg 71%
09:00 +4°C° 0 mm 3 mps 698 mmHg 66%
10:00 +7°C° 0 mm 3 mps 698 mmHg 60%
11:00 +9°C° 0 mm 2 mps 698 mmHg 54%
12:00 +12°C° 0 mm 2 mps 699 mmHg 48%
13:00 +13°C° 0 mm 2 mps 698 mmHg 46%
14:00 +13°C° 0 mm 2 mps 698 mmHg 45%
15:00 +14°C° 0 mm 2 mps 698 mmHg 44%
16:00 +12°C° 0 mm 2 mps 697 mmHg 49%
17:00 +10°C° 0 mm 2 mps 697 mmHg 55%
18:00 +8°C° 0 mm 2 mps 697 mmHg 61%
19:00 +7°C° 0 mm 2 mps 697 mmHg 64%
20:00 +6°C° 0 mm 2 mps 698 mmHg 66%
21:00 +4°C° 0 mm 2 mps 698 mmHg 68%
22:00 +4°C° 0 mm 2 mps 698 mmHg 68%
23:00 +3°C° 0 mm 2 mps 698 mmHg 68%

10 March, Wednesday

Time Temperature Precipitation Wind Pressure Humidity
00:00 +4°C° 0 mm 1 mps 699 mmHg 69%
01:00 +3°C° 0 mm 1 mps 699 mmHg 68%
02:00 +3°C° 0 mm 1 mps 699 mmHg 68%
03:00 +3°C° 0 mm 1 mps 699 mmHg 68%
04:00 +3°C° 0 mm 1 mps 699 mmHg 67%
05:00 +3°C° 0 mm 1 mps 699 mmHg 66%
06:00 +3°C° 0 mm 1 mps 699 mmHg 65%
07:00 +5°C° 0 mm 1 mps 700 mmHg 60%
08:00 +6°C° 0 mm 0 mps 700 mmHg 56%
09:00 +8°C° 0 mm 0 mps 701 mmHg 51%
10:00 +10°C° 0 mm 0 mps 701 mmHg 47%
11:00 +13°C° 0 mm 1 mps 702 mmHg 43%
12:00 +15°C° 0 mm 1 mps 702 mmHg 39%
13:00 +15°C° 0 mm 1 mps 702 mmHg 38%
14:00 +15°C° 0 mm 1 mps 702 mmHg 38%
15:00 +16°C° 0 mm 2 mps 701 mmHg 38%
16:00 +14°C° 0 mm 1 mps 701 mmHg 46%
17:00 +13°C° 0 mm 1 mps 701 mmHg 55%
18:00 +11°C° 0 mm 1 mps 701 mmHg 63%
19:00 +10°C° 0 mm 1 mps 701 mmHg 65%
20:00 +9°C° 0 mm 1 mps 701 mmHg 68%
21:00 +7°C° 0 mm 0 mps 702 mmHg 70%
22:00 +6°C° 0 mm 0 mps 702 mmHg 71%
23:00 +6°C° 0 mm 0 mps 702 mmHg 71%

11 March, Thursday

Time Temperature Precipitation Wind Pressure Humidity
00:00 +6°C° 0 mm 0 mps 702 mmHg 71%
01:00 +6°C° 0 mm 0 mps 702 mmHg 72%
02:00 +5°C° 0 mm 0 mps 702 mmHg 74%
03:00 +5°C° 0 mm 0 mps 701 mmHg 75%
04:00 +5°C° 0 mm 0 mps 701 mmHg 76%
05:00 +4°C° 0 mm 0 mps 701 mmHg 77%
06:00 +4°C° 0 mm 0 mps 702 mmHg 79%
07:00 +6°C° 0 mm 0 mps 702 mmHg 74%
08:00 +8°C° 0 mm 0 mps 703 mmHg 68%
09:00 +9°C° 0 mm 0 mps 703 mmHg 63%
10:00 +12°C° 0 mm 1 mps 703 mmHg 59%
11:00 +14°C° 0 mm 1 mps 703 mmHg 55%
12:00 +15°C° 0 mm 1 mps 704 mmHg 51%
13:00 +16°C° 0 mm 2 mps 703 mmHg 52%
14:00 +16°C° 0 mm 2 mps 703 mmHg 52%
15:00 +17°C° 0 mm 2 mps 703 mmHg 53%
16:00 +15°C° 0 mm 2 mps 702 mmHg 61%
17:00 +14°C° 0 mm 2 mps 702 mmHg 69%
18:00 +12°C° 0 mm 2 mps 702 mmHg 77%
19:00 +10°C° 0 mm 2 mps 702 mmHg 81%
20:00 +10°C° 0 mm 1 mps 702 mmHg 84%
21:00 +8°C° 0 mm 1 mps 702 mmHg 88%
22:00 +8°C° 0 mm 1 mps 701 mmHg 88%
23:00 +8°C° 0 mm 1 mps 701 mmHg 88%

12 March, Friday

Time Temperature Precipitation Wind Pressure Humidity
00:00 +7°C° 0 mm 1 mps 701 mmHg 88%
01:00 +7°C° 0 mm 1 mps 701 mmHg 89%
02:00 +7°C° 0 mm 1 mps 701 mmHg 90%
03:00 +7°C° 0 mm 1 mps 700 mmHg 92%
04:00 +7°C° 0 mm 1 mps 700 mmHg 93%
05:00 +7°C° 0 mm 1 mps 700 mmHg 93%
06:00 +7°C° 0 mm 1 mps 700 mmHg 94%
07:00 +8°C° 0 mm 1 mps 700 mmHg 88%
08:00 +9°C° 0 mm 1 mps 701 mmHg 83%
09:00 +10°C° 0 mm 1 mps 701 mmHg 77%
10:00 +12°C° 0 mm 1 mps 701 mmHg 70%
11:00 +13°C° 0 mm 1 mps 701 mmHg 63%
12:00 +15°C° 0 mm 2 mps 701 mmHg 57%
13:00 +15°C° 0 mm 2 mps 701 mmHg 54%
14:00 +14°C° 0 mm 3 mps 700 mmHg 52%
15:00 +14°C° 0 mm 3 mps 700 mmHg 50%
16:00 +13°C° 0 mm 3 mps 699 mmHg 54%
17:00 +11°C° 0 mm 3 mps 699 mmHg 58%
18:00 +9°C° 0 mm 3 mps 699 mmHg 62%
19:00 +8°C° 0 mm 3 mps 699 mmHg 66%
20:00 +5°C° 0 mm 3 mps 699 mmHg 71%
21:00 +4°C° 0 mm 3 mps 700 mmHg 76%
22:00 +3°C° 0 mm 3 mps 700 mmHg 79%
23:00 +3°C° 0 mm 3 mps 700 mmHg 82%
Show more